カタログに戻る

NIMBUS 2 DEB

運用中LEO
NORAD 28978·DEBRIS·🇺🇸 United States

打ち上げ May 15, 1966 から Vandenberg Space Force Base

Loading…

次のパス (今後24時間)

TLE

最新Source: Space-Track

元期: Sep 14, 2026, 07:22 UTC

1 28978U 66040AP  26257.30759353  .00001371  00000-0  21242-2 0  9992
2 28978 100.3793 196.6189 0039602 163.8412 349.6716 13.52783532941979

AllMySatでNIMBUS 2 DEBをリアルタイム追跡

Download on the App Store